Westerly, RI

11:56 AM EDT on March 25, 2017 (GMT -0400)
Westerly State

Weather History for KWST - February, 2014

Change the Weather History Date:

Monday, February 3, 2014

  Actual Average (KGON) Record (KGON)
Temperature  
Mean Temperature 34 °F -  
Max Temperature 39 °F 39 °F 57 °F (1991)
Min Temperature 28 °F 21 °F -9 °F (1961)
Degree Days  
Heating Degree Days 30    
Moisture  
Dew Point 30 °F    
Average Humidity 90    
Maximum Humidity 96    
Minimum Humidity 70    
Precipitation  
Precipitation 0.00 in - - ()
Sea Level Pressure  
Sea Level Pressure 30.15 in    
Wind  
Wind Speed 7 mph (North)    
Max Wind Speed 13 mph    
Max Gust Speed 22 mph    
Visibility 3 miles    
Events Fog , Rain , Snow    
Averages and records for this station are not official NWS values.
T = Trace of Precipitation, MM = Missing Value Source: NWS Daily Summary

Daily Weather History Graph

Daily Weather History Graph

Search for Another Location

Airport or City:

Trip Planner

Search our weather history database for the weather conditions in past years. The results will help you decide how hot, cold, wet, or windy it might be!

Date:

Astronomy

Feb. 03, 2014 Rise Set
Actual Time 6:56 AM EST 5:06 PM EST
Civil Twilight 6:27 AM EST 5:35 PM EST
Nautical Twilight 5:54 AM EST 6:08 PM EST
Astronomical Twilight 5:22 AM EST 6:40 PM EST
Moon 8:53 AM EST (2/3) 9:56 PM EST (2/3)
Length of Visible Light 11h 07m
Length of Day
10h 09m
Waxing Crescent, 19% of the Moon is Illuminated
Feb 3
Waxing Crescent
Feb 6
First Quarter
Feb 14
Full
Feb 22
Last Quarter
Mar 1
New

Hourly Weather History & Observations

Time (EST) Temp. Windchill Dew Point Humidity Pressure Visibility Wind Dir Wind Speed Gust Speed Precip Events Conditions
12:53 AM 39.9 °F 33.9 °F 32.0 °F 73% 30.07 in 10.0 mi NNW 9.2 mph - N/A   Mostly Cloudy
1:53 AM 39.0 °F 32.8 °F 30.0 °F 70% 30.09 in 10.0 mi NNW 9.2 mph - N/A   Overcast
2:53 AM 39.0 °F 32.3 °F 30.0 °F 70% 30.09 in 10.0 mi NNW 10.4 mph - 0.00 in   Overcast
3:53 AM 37.9 °F 32.7 °F 28.9 °F 70% 30.10 in 10.0 mi NNW 6.9 mph - N/A   Overcast
4:53 AM 37.9 °F 33.5 °F 28.9 °F 70% 30.12 in 10.0 mi NNW 5.8 mph - N/A   Overcast
5:53 AM 37.9 °F 34.4 °F 28.9 °F 70% 30.14 in 10.0 mi NNW 4.6 mph - N/A   Overcast
6:19 AM 37.0 °F 33.3 °F 30.0 °F 76% 30.13 in 7.0 mi North 4.6 mph - 0.00 in Rain Light Rain
6:43 AM 35.1 °F 30.1 °F 30.9 °F 85% 30.15 in 3.0 mi NNW 5.8 mph - 0.00 in Snow Light Snow
6:53 AM 34.0 °F 29.8 °F 30.9 °F 89% 30.15 in 2.5 mi North 4.6 mph - 0.00 in Snow Light Snow
7:09 AM 33.1 °F 30.0 °F 32.0 °F 96% 30.16 in 1.8 mi North 3.5 mph - 0.00 in Snow Light Snow
7:20 AM 33.1 °F 30.0 °F 30.9 °F 92% 30.15 in 1.0 mi NNE 3.5 mph - 0.00 in Snow Light Snow
7:28 AM 33.1 °F - 32.0 °F 96% 30.16 in 0.5 mi Calm Calm - 0.00 in Fog , Snow Snow
7:53 AM 33.1 °F - 32.0 °F 96% 30.16 in 0.5 mi Calm Calm - 0.00 in Fog , Snow Snow
8:24 AM 33.1 °F 30.0 °F 32.0 °F 96% 30.15 in 0.5 mi NNE 3.5 mph - 0.00 in Fog , Snow Snow
8:38 AM 33.1 °F - 32.0 °F 96% 30.15 in 0.5 mi Calm Calm - 0.00 in Fog , Snow Snow
8:53 AM 33.1 °F - 32.0 °F 96% 30.16 in 0.8 mi Calm Calm - 0.00 in Snow Light Snow
9:53 AM 33.1 °F 27.7 °F 32.0 °F 96% 30.17 in 0.5 mi NNE 5.8 mph - 0.00 in Fog , Snow Snow
10:18 AM 33.1 °F 26.9 °F 30.9 °F 92% 30.18 in 0.2 mi NNE 6.9 mph - 0.00 in Fog , Snow Snow
10:27 AM 33.1 °F 26.9 °F 30.9 °F 92% 30.18 in 0.5 mi NNE 6.9 mph - 0.00 in Fog , Snow Snow
10:42 AM 33.1 °F 27.7 °F 30.9 °F 92% 30.18 in 0.2 mi NNE 5.8 mph - 0.00 in Fog , Snow Snow
10:53 AM 33.1 °F 26.9 °F 30.9 °F 92% 30.18 in 0.2 mi NNE 6.9 mph - 0.00 in Fog , Snow Snow
11:10 AM 33.1 °F 24.9 °F 30.9 °F 92% 30.17 in 0.5 mi NNE 10.4 mph - 0.00 in Fog , Snow Snow
11:24 AM 33.1 °F 26.9 °F 30.9 °F 92% 30.16 in 0.5 mi NNE 6.9 mph - 0.00 in Fog , Snow Snow
11:45 AM 32.0 °F 25.6 °F 30.9 °F 96% 30.15 in 0.5 mi NNE 6.9 mph - 0.00 in Fog , Snow Snow
11:53 AM 32.0 °F 25.6 °F 30.9 °F 96% 30.14 in 0.5 mi NNE 6.9 mph - 0.00 in Fog , Snow Snow
12:53 PM 32.0 °F 25.6 °F 30.9 °F 96% 30.11 in 0.2 mi NNE 6.9 mph - 0.00 in Fog , Snow Snow
1:05 PM 32.0 °F 25.6 °F 30.9 °F 96% 30.10 in 0.2 mi NNE 6.9 mph - 0.00 in Fog , Snow Snow
1:14 PM 32.0 °F 23.6 °F 30.9 °F 96% 30.10 in 0.5 mi NNE 10.4 mph - 0.00 in Fog , Snow Snow
1:25 PM 32.0 °F 24.2 °F 30.9 °F 96% 30.10 in 0.2 mi NNE 9.2 mph - 0.00 in Fog , Snow Snow
1:42 PM 32.0 °F 23.6 °F 30.9 °F 96% 30.10 in 0.5 mi NNE 10.4 mph - 0.00 in Fog , Snow Snow
1:53 PM 32.0 °F 24.8 °F 30.9 °F 96% 30.10 in 0.2 mi NNE 8.1 mph - 0.00 in Fog , Snow Snow
1:58 PM 32.0 °F 24.2 °F 30.0 °F 92% 30.10 in 0.5 mi North 9.2 mph - 0.00 in Fog , Snow Snow
2:53 PM 32.0 °F 24.2 °F 30.0 °F 92% 30.11 in 0.5 mi NNE 9.2 mph - 0.00 in Fog , Snow Snow
3:51 PM 32.0 °F 24.2 °F 30.2 °F 93% 30.11 in 0.2 mi North 9.2 mph - 0.00 in Fog , Snow Snow
3:53 PM 32.0 °F 23.6 °F 30.0 °F 92% 30.12 in 0.2 mi NNE 10.4 mph - 0.00 in Fog , Snow Snow
4:01 PM 32.0 °F 24.2 °F 30.0 °F 92% 30.11 in 0.5 mi NNE 9.2 mph 17.3 mph 0.00 in Fog , Snow Snow
4:13 PM 32.0 °F 24.8 °F 30.0 °F 92% 30.12 in 1.0 mi North 8.1 mph - 0.00 in Snow Light Snow
4:30 PM 32.0 °F 23.6 °F 30.0 °F 92% 30.12 in 1.0 mi North 10.4 mph - 0.00 in Snow Light Snow
4:36 PM 32.0 °F 22.5 °F 30.0 °F 92% 30.12 in 0.8 mi North 12.7 mph 18.4 mph 0.00 in Snow Light Snow
4:53 PM 32.0 °F 22.5 °F 30.0 °F 92% 30.14 in 1.0 mi North 12.7 mph 21.9 mph 0.00 in Snow Light Snow
5:19 PM 30.9 °F 23.5 °F 28.9 °F 92% 30.14 in 2.5 mi North 8.1 mph - 0.00 in Snow Light Snow
5:27 PM 30.9 °F 23.5 °F 28.9 °F 92% 30.15 in 5.0 mi North 8.1 mph - 0.00 in Snow Light Snow
5:53 PM 30.9 °F 22.2 °F 28.9 °F 92% 30.15 in 8.0 mi North 10.4 mph - 0.00 in Snow Light Snow
6:53 PM 30.0 °F 21.7 °F 28.0 °F 92% 30.18 in 7.0 mi North 9.2 mph - 0.00 in Snow Light Snow
7:53 PM 30.0 °F 22.4 °F 28.0 °F 92% 30.21 in 10.0 mi North 8.1 mph - 0.00 in   Overcast
8:53 PM 30.0 °F 22.4 °F 27.0 °F 88% 30.23 in 10.0 mi North 8.1 mph - N/A   Overcast
9:53 PM 30.0 °F 25.2 °F 27.0 °F 88% 30.25 in 10.0 mi North 4.6 mph - N/A   Overcast
10:53 PM 30.0 °F 23.2 °F 26.1 °F 85% 30.28 in 10.0 mi North 6.9 mph - N/A   Overcast
11:53 PM 28.9 °F 21.9 °F 26.1 °F 89% 30.29 in 10.0 mi North 6.9 mph - N/A   Overcast